TimeEDT,TemperatureF,Dew PointF,Humidity,Sea Level PressureIn,VisibilityMPH,Wind Direction,Wind SpeedMPH,Gust SpeedMPH,PrecipitationIn,Events,Conditions,WindDirDegrees,DateUTC
12:53 AM,54.0,51.1,90,29.93,10.0,Calm,Calm,-,N/A,,Clear,0,2013-08-02 04:53:00
1:18 AM,51.1,48.9,92,29.95,1.2,Calm,Calm,-,N/A,,Clear,0,2013-08-02 05:18:00
1:53 AM,52.0,50.0,93,29.92,10.0,Calm,Calm,-,N/A,,Clear,0,2013-08-02 05:53:00
2:25 AM,50.0,48.0,93,29.94,1.8,Calm,Calm,-,N/A,,Clear,0,2013-08-02 06:25:00
2:35 AM,50.0,48.0,93,29.94,1.5,Calm,Calm,-,N/A,,Scattered Clouds,0,2013-08-02 06:35:00
2:38 AM,50.0,46.9,89,29.94,4.0,Calm,Calm,-,N/A,,Scattered Clouds,0,2013-08-02 06:38:00
2:51 AM,51.8,48.2,88,29.94,10.0,Calm,Calm,-,N/A,,Mostly Cloudy,0,2013-08-02 06:51:00
2:53 AM,51.1,48.0,89,29.91,10.0,Calm,Calm,-,N/A,,Mostly Cloudy,0,2013-08-02 06:53:00
3:29 AM,53.1,50.0,89,29.94,10.0,Calm,Calm,-,N/A,,Overcast,0,2013-08-02 07:29:00
3:53 AM,52.0,48.9,89,29.91,9.0,Calm,Calm,-,N/A,,Mostly Cloudy,0,2013-08-02 07:53:00
4:53 AM,57.0,54.0,89,29.91,7.0,Calm,Calm,-,N/A,,Overcast,0,2013-08-02 08:53:00
5:30 AM,57.9,55.0,90,29.94,6.0,Calm,Calm,-,N/A,,Overcast,0,2013-08-02 09:30:00
5:53 AM,59.0,55.9,90,29.91,6.0,Calm,Calm,-,N/A,,Overcast,0,2013-08-02 09:53:00
6:46 AM,59.0,55.9,90,29.96,1.8,West,4.6,-,N/A,,Overcast,260,2013-08-02 10:46:00
6:53 AM,59.0,57.0,93,29.93,0.8,Variable,3.5,-,N/A,,Overcast,0,2013-08-02 10:53:00
7:07 AM,59.0,57.0,93,29.97,0.5,Variable,4.6,-,N/A,Fog,Fog,0,2013-08-02 11:07:00
7:19 AM,59.0,57.0,93,29.97,1.5,Variable,3.5,-,N/A,,Overcast,0,2013-08-02 11:19:00
7:24 AM,59.0,57.0,93,29.97,3.0,Calm,Calm,-,N/A,,Overcast,0,2013-08-02 11:24:00
7:34 AM,60.1,57.0,90,29.98,4.0,Calm,Calm,-,N/A,,Overcast,0,2013-08-02 11:34:00
7:42 AM,60.1,57.0,90,29.98,4.0,Calm,Calm,-,N/A,,Overcast,0,2013-08-02 11:42:00
7:53 AM,60.1,57.0,90,29.95,5.0,Variable,3.5,-,N/A,,Overcast,0,2013-08-02 11:53:00
8:14 AM,62.1,57.0,84,29.98,6.0,Variable,3.5,-,N/A,,Haze,0,2013-08-02 12:14:00
8:39 AM,62.1,57.0,84,29.98,7.0,Variable,6.9,-,N/A,,Overcast,0,2013-08-02 12:39:00
8:53 AM,63.0,57.9,84,29.95,7.0,Variable,5.8,-,N/A,,Mostly Cloudy,0,2013-08-02 12:53:00
9:07 AM,64.0,57.0,78,29.98,8.0,SW,8.1,-,N/A,,Scattered Clouds,220,2013-08-02 13:07:00
9:53 AM,66.0,57.0,73,29.93,10.0,Variable,5.8,-,N/A,,Scattered Clouds,0,2013-08-02 13:53:00
10:53 AM,66.9,55.9,68,29.94,10.0,West,8.1,-,N/A,,Mostly Cloudy,260,2013-08-02 14:53:00
11:07 AM,69.1,57.0,65,29.96,10.0,West,8.1,-,N/A,,Mostly Cloudy,280,2013-08-02 15:07:00
11:53 AM,71.1,54.0,55,29.94,10.0,WSW,10.4,16.1,N/A,,Partly Cloudy,250,2013-08-02 15:53:00
12:53 PM,72.0,53.1,51,29.93,10.0,West,8.1,-,N/A,,Partly Cloudy,260,2013-08-02 16:53:00
1:53 PM,72.0,50.0,46,29.94,10.0,West,10.4,-,N/A,,Mostly Cloudy,260,2013-08-02 17:53:00
3:53 PM,71.1,51.1,49,29.94,10.0,SW,13.8,19.6,N/A,,Mostly Cloudy,230,2013-08-02 19:53:00
5:53 PM,70.0,52.0,53,29.93,10.0,WSW,8.1,-,N/A,,Scattered Clouds,250,2013-08-02 21:53:00
7:53 PM,66.9,52.0,59,29.94,10.0,SW,5.8,-,N/A,,Overcast,230,2013-08-02 23:53:00
8:53 PM,66.0,52.0,60,29.92,10.0,SW,5.8,-,N/A,,Overcast,220,2013-08-03 00:53:00
9:53 PM,64.0,52.0,65,29.92,10.0,SSW,3.5,-,N/A,,Overcast,200,2013-08-03 01:53:00
10:53 PM,64.0,52.0,65,29.92,10.0,South,4.6,-,N/A,,Overcast,190,2013-08-03 02:53:00
11:46 PM,64.0,53.1,67,29.95,10.0,SW,3.5,-,0.00,Rain,Light Rain,220,2013-08-03 03:46:00
11:53 PM,64.0,53.1,67,29.91,10.0,Variable,4.6,-,0.00,,Overcast,0,2013-08-03 03:53:00